Location: Newark
(22.3060°N, 114.2134°E)
Time: 10:28:39
(UTC+00:00)

Courier 1B - All Passes

Search period start: 03 August 2021 00:00
Search period end: 13 August 2021 00:00
Orbit: 962 x 1209 km, 28.3° (Epoch: 02 August)

Date Brightness Start Highest point End Pass type
(mag) Time Alt. Az. Time Alt. Az. Time Alt. Az.
03 Aug - 06:03:17 10° SSE 06:04:22 10° SE 06:05:27 10° SE daylight
03 Aug - 07:51:17 10° SW 07:58:14 39° SSE 08:05:23 10° E daylight
03 Aug - 09:44:39 10° WSW 09:52:29 89° NNW 10:00:24 10° ENE daylight
03 Aug - 11:39:36 10° W 11:47:21 57° N 11:54:55 10° ENE visible
03 Aug - 13:34:41 10° WNW 13:42:24 61° N 13:49:46 10° E visible
03 Aug - 15:29:23 10° WNW 15:37:00 77° SSW 15:44:09 10° ESE visible
03 Aug - 17:24:56 10° W 17:30:53 27° SSW 17:36:32 10° SSE night (unlit)
04 Aug - 06:58:08 10° SSW 07:04:23 29° SSE 07:10:50 10° E daylight
04 Aug - 08:50:46 10° WSW 08:58:27 77° SSE 09:06:20 10° ENE daylight
04 Aug - 10:45:24 10° W 10:53:10 62° N 11:00:54 10° ENE daylight
04 Aug - 12:40:32 10° WNW 12:48:15 57° N 12:55:44 10° E visible
04 Aug - 14:35:16 10° WNW 14:43:03 88° NNE 14:50:24 10° ESE visible
04 Aug - 16:30:23 10° W 16:37:08 37° SSW 16:43:32 10° SE night (unlit)
05 Aug - 06:05:22 10° SSW 06:10:34 21° SSE 06:15:56 10° ESE daylight
05 Aug - 07:57:03 10° SW 08:04:28 61° SSE 08:12:12 10° ENE daylight
05 Aug - 09:51:16 10° W 09:59:01 69° NNW 10:06:52 10° ENE daylight
05 Aug - 11:46:22 10° WNW 11:54:04 55° N 12:01:38 10° ENE visible
05 Aug - 13:41:10 10° WNW 13:49:02 76° NNE 13:56:32 10° E visible
05 Aug - 15:36:01 10° W 15:43:20 50° SSW 15:50:15 10° SE visible
05 Aug - 17:33:18 10° WSW 17:37:04 15° SW 17:40:45 10° S night (unlit)
06 Aug - 05:13:19 10° S 05:16:47 14° SE 05:20:21 10° ESE daylight
06 Aug - 07:03:32 10° SW 07:10:35 47° SSE 07:17:57 10° E daylight
06 Aug - 08:57:14 10° WSW 09:04:54 79° NNW 09:12:49 10° ENE daylight
06 Aug - 10:52:11 10° W 10:59:52 56° N 11:07:32 10° ENE daylight
06 Aug - 12:47:05 10° WNW 12:54:55 67° NNE 13:02:32 10° E visible
06 Aug - 14:41:47 10° WNW 14:49:27 65° SSW 14:56:45 10° SE visible
06 Aug - 16:37:52 10° W 16:43:19 22° SSW 16:48:34 10° SSE night (unlit)
07 Aug - 06:10:15 10° SSW 06:16:44 35° SSE 06:23:34 10° E daylight
07 Aug - 08:03:19 10° WSW 08:10:51 88° SSE 08:18:44 10° ENE daylight
07 Aug - 09:58:03 10° W 10:05:40 58° N 10:13:25 10° ENE daylight
07 Aug - 11:53:00 10° WNW 12:00:46 60° N 12:08:26 10° E visible
07 Aug - 13:47:38 10° WNW 13:55:30 80° SSW 14:03:03 10° ESE visible
07 Aug - 15:43:03 10° W 15:49:33 30° SSW 15:55:46 10° SSE visible
08 Aug - 05:17:18 10° SSW 05:22:58 26° SSE 05:28:55 10° E daylight
08 Aug - 07:09:34 10° WSW 07:16:53 73° SSE 07:24:37 10° ENE daylight
08 Aug - 09:03:57 10° W 09:11:30 63° N 09:19:17 10° ENE daylight
08 Aug - 10:58:55 10° WNW 11:06:35 57° N 11:14:17 10° E daylight
08 Aug - 12:53:33 10° WNW 13:01:28 85° NNE 13:09:11 10° ESE visible
08 Aug - 14:48:32 10° W 14:55:43 41° SSW 15:02:36 10° SE visible
08 Aug - 16:47:33 10° SW 16:49:31 11° SW 16:51:28 10° SSW night (unlit)
09 Aug - 04:24:46 10° S 04:29:14 18° SSE 04:33:52 10° ESE daylight
09 Aug - 06:15:59 10° SW 06:22:59 57° SSE 06:30:26 10° ENE daylight
09 Aug - 08:09:57 10° W 08:17:23 70° NNW 08:25:11 10° ENE daylight
09 Aug - 10:04:50 10° WNW 10:12:23 55° N 10:20:05 10° ENE daylight
09 Aug - 11:59:31 10° WNW 12:07:23 74° NNE 12:15:11 10° E visible
09 Aug - 13:54:13 10° W 14:01:50 54° SSW 14:09:11 10° SE visible
09 Aug - 15:51:03 10° WSW 15:55:43 17° SSW 16:00:16 10° S night (unlit)
10 Aug - 03:33:19 10° SSE 03:35:31 12° SE 03:37:44 10° SE daylight
10 Aug - 05:22:36 10° SW 05:29:11 43° SSE 05:36:08 10° E daylight
10 Aug - 07:16:01 10° WSW 07:23:20 81° NNW 07:31:05 10° ENE daylight
10 Aug - 09:10:46 10° W 09:18:12 56° N 09:25:53 10° ENE daylight
10 Aug - 11:05:30 10° WNW 11:13:15 65° NNE 11:21:04 10° E visible
10 Aug - 13:00:03 10° WNW 13:07:52 68° SSW 13:15:32 10° ESE visible
10 Aug - 14:55:53 10° W 15:01:54 24° SSW 15:07:45 10° SSE visible
11 Aug - 04:29:28 10° SSW 04:35:25 32° SSE 04:41:42 10° E daylight
11 Aug - 06:22:14 10° WSW 06:29:22 85° SSE 06:36:59 10° ENE daylight
11 Aug - 08:16:44 10° W 08:24:02 58° N 08:31:42 10° ENE daylight
11 Aug - 10:11:31 10° WNW 10:19:05 59° N 10:26:51 10° E daylight
11 Aug - 12:06:00 10° WNW 12:13:52 83° SSW 12:21:42 10° ESE visible
11 Aug - 14:01:11 10° W 14:08:03 33° SSW 14:14:45 10° SSE visible
12 Aug - 03:36:38 10° SSW 03:41:43 23° SSE 03:47:01 10° E daylight
12 Aug - 05:28:36 10° WSW 05:35:29 69° SSE 05:42:51 10° ENE daylight
12 Aug - 07:22:46 10° W 07:29:56 63° N 07:37:33 10° ENE daylight
12 Aug - 09:17:32 10° WNW 09:24:55 56° N 09:32:36 10° E daylight
12 Aug - 11:12:01 10° WNW 11:19:49 83° NNE 11:27:43 10° ESE visible
12 Aug - 13:06:47 10° W 13:14:09 44° SSW 13:21:26 10° SE visible
12 Aug - 15:04:46 10° WSW 15:08:06 13° SW 15:11:23 10° S visible
